CZ-3C DEB, 40199

Orbit data source: Space-Track

CZ-3C DEB, 40199 is space debris in HEO originally from a launch on Fri, 24 Feb 2012 UTC launched from the Xichang Space Center, China (XSC). Debris objects in space refer to the collection of defunct objects orbiting the Earth. Examples of debris include non-operational satellites, rocket bodies, and fragments generated from explosions, collisions, or faulty payload assembly.

Loading next visibility...
Identifier
40199, 2012-008J
Orbit
HEO
Country
Flag of CNCN / PRC
Related business
Manufacturer
CALT
Mission
Spacecraft
Bus & Motor
Unknown
Mass
Unknown
Launch date (UTC)
2012-02-24 (14 years ago)
Launch vehicle
Unknown
Launch site
Xichang Space Center, China (XSC)
Object type
Payload
Rocket body
Debris
Shape & HBR
Unknown shape, 0.3 m
Radar Cross Section
Medium (>0.1 m² and <1 m²)

Expand to show TLE details & history
Last TLE update: 1 week ago

TLE from 1 week ago
0 CZ-3C DEB
1 40199U 12008J   25279.07405592 -.00000319  00000-0 -11020-1 0  9991
2 40199  18.2342 273.7428 7228573 175.7296 198.2066  2.09224195 90880
Epoch: 2025-10-06T01:46Z
TLE epoch observation values (Epoch: 2025-10-06T01:46:38.431Z)
Latitude
-0.00009°
Longitude
-127.92333°
Altitude
37,755.649 km
Speed
1.621 km/s
True Right ascension
18h 14m 52s
True Declination
0° 00' 00"
Sunlit
Object was in daylight at epoch
Visualization orbit readout
Latitude
Unknown
Longitude
Unknown
Altitude
Unknown
Speed
Unknown
Apparent Right ascension
Unknown
Apparent Declination
Unknown
Sunlit
N/A
Visualization observer readout
Local Sidereal Time
14:52:56
Azimuth
Unknown
Elevation
Unknown
Doppler factor
Unknown
Orbital elements
Apogee altitude
38,117.523 km
Perigee altitude
779.535 km
Semi-major axis
25,826.666 km
Eccentricity
0.72286
Inclination
18.2342°
RAAN
273.7428°
Arg. of periapsis
175.7296°
True anomaly
184.25876°
Mean anomaly
198.2066°
Eccentric anomaly
190.59295°
Mean motion
0.52293 °/min
Orbital period
688.43 mins
BSTAR
-0.01102
Loading maneuver chart data...
Computing Atmospheric mass density...
Loading historical data...
Loading historical data...
Loading historical data...
Loading historical data...
Loading historical data...
Loading historical data...
Loading historical data...

Documentation

Showing up to 5 results
|